This is the latest recevied weather packets stored in our database for station/object AE0NK. If no packets are shown the sender has not sent any weather packets the latest 10 day(s).
| Time | Temp. | Humidity | Pressure | Rain* | Wind** | Luminosity | Snow |
|---|---|---|---|---|---|---|---|
| 1777987104 | 9.44° C | 59% | 1010.6 hPa | 0 mm | - | 155 W/m² | - |
| 1777986800 | 8.89° C | 58% | 1010.8 hPa | 0 mm | - | 137 W/m² | - |
| 1777986497 | 8.89° C | 57% | 1010.9 hPa | 0 mm | - | 100 W/m² | - |
| 1777986196 | 8.89° C | 60% | 1010.9 hPa | 0 mm | - | 120 W/m² | - |
| 1777985910 | 8.89° C | 60% | 1010.9 hPa | 0 mm | - | 100 W/m² | - |
| 1777985609 | 8.89° C | 59% | 1011 hPa | 0 mm | - | 63 W/m² | - |
| 1777985305 | 8.33° C | 60% | 1011.1 hPa | 0 mm | - | 77 W/m² | - |
| 1777985004 | 8.33° C | 59% | 1011.1 hPa | 0 mm | - | 47 W/m² | - |
| 1777984703 | 8.33° C | 60% | 1011.2 hPa | 0 mm | - | 40 W/m² | - |
| 1777984100 | 8.33° C | 59% | 1011.2 hPa | 0 mm | - | 76 W/m² | - |
| 1777983796 | 8.33° C | 62% | 1011.1 hPa | 0 mm | - | 88 W/m² | - |
| 1777983493 | 8.33° C | 62% | 1011.4 hPa | 0 mm | - | 69 W/m² | - |
| 1777983210 | 8.33° C | 60% | 1011.6 hPa | 0 mm | - | 40 W/m² | - |
| 1777982908 | 8.33° C | 60% | 1011.4 hPa | 0 mm | - | 28 W/m² | - |
| 1777982605 | 8.33° C | 56% | 1011.4 hPa | 0 mm | - | 32 W/m² | - |
| 1777982299 | 8.33° C | 56% | 1011.3 hPa | 0 mm | - | 33 W/m² | - |
| 1777981994 | 8.33° C | 55% | 1011.2 hPa | 0 mm | - | 39 W/m² | - |
| 1777981711 | 8.33° C | 54% | 1011.2 hPa | 0 mm | - | 39 W/m² | - |
| 1777981408 | 8.33° C | 54% | 1010.9 hPa | 0 mm | - | 40 W/m² | - |
| 1777981105 | 8.33° C | 54% | 1011 hPa | 0 mm | - | 37 W/m² | - |
| 1777980802 | 8.33° C | 53% | 1010.8 hPa | 0 mm | - | 23 W/m² | - |
| 1777980499 | 8.33° C | 53% | 1010.6 hPa | 0 mm | - | 14 W/m² | - |
| 1777980196 | 8.33° C | 52% | 1010.5 hPa | 0 mm | - | 12 W/m² | - |
| 1777979911 | 8.89° C | 51% | 1010.3 hPa | 0 mm | - | 12 W/m² | - |
| 1777979608 | 8.89° C | 51% | 1010.1 hPa | 0 mm | - | 7 W/m² | - |
* Rain latest hour (hover to see other rain measurements)
** Current wind speed in m/s (hover to see current wind gust speed)